Temperature
9 9 9 10 10 10 10 10 10 10 10 10 11 11 11 11 11 11 11 11 11 11 11 11 11 11 11 11 11 11 10 10 10 10 10 10 10 10 10 10 10 10 10
9 9 9 9 9 10 10 10 10 10 10 10 10 10 11 11 11 11 11 11 11 11 11 11 11 11 11 11 11 10 10 10 10 10 9 9 9 10 10 10 10 10 10
8 8 9 9 9 9 9 9 10 10 10 10 10 10 10 10 10 10 10 11 11 11 11 10 11 11 11 10 10 10 10 10 10 10 10 9 9 10 10 10 10 10 10
8 8 8 9 9 9 9 9 9 10 10 10 9 10 10 10 10 10 10 10 10 10 10 10 10 10 10 10 10 10 10 10 10 9 10 10 10 10 10 10 10 10 10
7 8 8 8 9 9 9 9 9 10 10 10 9 9 9 10 10 10 10 10 10 10 10 10 10 10 10 10 10 10 10 10 10 10 10 10 10 10 10 9 10 10 10
7 7 8 8 8 9 9 9 9 9 9 9 9 9 9 9 9 9 9 10 10 10 10 10 10 10 10 10 10 10 10 10 10 10 10 10 10 10 10 10 10 10 10
7 7 7 7 8 8 8 8 9 9 9 9 9 9 9 9 9 9 9 9 9 10 10 10 10 10 10 10 10 10 10 10 10 10 10 10 10 10 10 10 9 9 9
6 7 7 7 7 7 8 8 8 8 8 8 9 9 9 9 9 9 9 9 9 10 10 10 10 10 10 10 10 10 10 10 10 10 10 10 10 10 10 10 10 9 9
6 6 6 7 7 7 7 8 8 8 8 8 8 8 8 8 8 9 9 9 9 9 10 10 10 10 10 10 10 10 10 10 10 10 10 10 10 10 10 10 10 9 8
6 6 6 6 7 7 7 7 7 7 7 8 8 8 8 8 8 8 8 9 9 9 9 9 9 9 10 10 9 10 10 10 10 10 9 9 10 10 9 9 9 9 9
5 5 6 6 6 6 7 7 7 7 7 7 7 7 7 7 8 8 8 8 9 9 9 9 9 9 9 9 9 9 10 9 9 9 9 9 10 9 9 9 9 9 9
5 5 5 5 6 6 6 6 6 6 6 6 7 7 7 7 7 7 8 8 8 8 8 8 9 9 9 9 9 9 9 9 9 9 9 9 9 9 9 9 9 9 9
5 5 5 5 5 5 6 6 6 6 6 6 6 6 6 7 7 7 7 8 8 8 8 8 8 9 9 9 9 9 9 9 9 9 9 9 9 9 9 9 9 9 9
4 4 4 5 5 5 5 5 5 5 5 5 5 5 6 6 6 7 7 7 8 8 8 8 8 8 9 9 9 9 9 9 9 9 9 9 9 9 9 9 9 9 8
4 4 4 4 4 4 5 5 5 5 5 4 5 5 5 5 6 6 7 7 7 7 7 8 8 8 8 9 9 9 9 9 9 9 9 9 9 9 9 9 9 8 8
4 4 4 4 4 4 4 4 4 4 4 4 4 4 5 5 5 6 6 6 7 7 7 7 8 8 8 8 9 8 8 8 8 9 9 9 8 8 9 8 8 8 8
4 4 4 4 4 4 3 4 4 4 4 3 4 4 4 4 5 5 5 6 6 6 6 7 7 8 8 8 8 8 8 8 8 8 8 8 8 8 8 8 8 8 7
3 3 3 3 3 3 3 3 3 3 3 3 3 3 3 4 4 5 5 5 6 6 6 6 7 7 7 8 8 8 8 8 8 8 8 8 8 8 8 8 8 7 7
3 3 3 3 3 3 3 3 3 3 3 3 3 3 3 3 4 4 5 5 5 5 6 6 6 7 7 7 7 7 7 7 7 7 8 8 8 8 8 7 7 7 7
3 3 2 2 3 2 2 2 2 2 2 2 2 3 3 3 3 4 4 4 5 5 5 5 6 6 6 7 7 7 7 7 7 7 7 7 8 8 7 7 7 7 7
3 2 2 2 2 2 2 2 2 2 2 2 2 2 2 2 3 3 4 4 4 5 5 5 5 6 6 6 6 6 6 6 6 7 7 7 7 7 7 7 7 7 6
2 2 2 2 2 2 2 1 1 1 1 1 2 2 2 2 2 3 3 4 4 4 5 5 5 5 6 6 6 6 6 6 6 6 6 7 7 7 7 6 6 6 6
2 2 2 2 2 1 1 1 1 1 1 1 1 1 2 2 2 2 3 3 3 3 4 4 4 5 5 5 5 5 6 6 6 6 6 6 6 6 6 6 6 6 5
1 1 1 1 1 1 1 1 1 1 1 1 1 1 2 2 2 2 2 2 3 3 3 3 4 4 4 5 5 5 5 5 5 5 5 5 6 6 6 5 5 5 5
1 1 1 1 1 1 1 1 1 1 1 1 1 1 1 2 2 2 2 2 2 2 2 3 3 3 4 4 4 4 4 5 5 5 5 5 5 5 5 5 4 4 4
0 0 0 0 0 0 0 0 0 0 0 0 0 1 1 1 1 2 2 2 2 2 2 2 3 3 3 3 4 4 4 4 4 4 4 4 4 4 4 4 4 4 3
Wind_Speed
9 7 7 7 6 6 8 9 8 8 7 5 5 5 6 6 6 6 8 10 10 11 10 9 9 10 10 10 10 7 7 5 5 4 2 1 2 4 5 5 5 6 8
8 7 6 4 5 6 7 8 8 8 8 7 6 5 5 5 5 6 7 9 10 11 10 10 10 10 9 10 11 8 6 5 7 5 5 1 2 3 5 4 6 6 5
8 8 6 5 5 6 6 7 8 9 8 7 4 3 3 3 4 5 6 8 10 11 10 11 11 11 11 11 12 12 11 8 7 6 6 5 5 2 2 4 5 5 5
7 7 6 5 5 7 6 6 7 7 7 7 7 7 6 6 6 6 6 7 9 10 10 10 12 12 11 11 12 12 9 11 9 6 3 3 4 4 2 2 3 4 6
6 7 6 6 6 6 5 5 6 6 6 7 9 8 8 7 5 5 7 7 8 10 10 10 11 12 11 12 12 11 11 10 10 8 5 3 2 2 3 3 3 3 4
6 6 5 4 4 4 4 5 5 5 5 6 8 9 10 8 7 7 7 7 6 7 10 10 10 12 11 12 12 12 13 11 10 8 7 6 5 5 4 4 5 4 3
6 6 5 5 4 4 4 4 5 5 5 5 7 8 9 9 10 9 8 7 7 7 10 10 10 11 10 11 11 12 12 13 12 11 9 7 6 5 4 4 4 3 2
5 5 5 5 4 4 4 4 4 5 5 5 6 7 8 7 7 8 8 9 8 9 10 11 11 11 12 11 10 10 12 11 12 12 10 8 7 5 5 5 4 3 2
6 6 6 5 4 4 4 4 4 4 5 4 4 5 7 7 7 8 8 8 8 8 10 11 11 11 12 12 11 10 12 11 12 11 10 9 7 6 5 5 6 5 4
6 6 6 6 5 5 5 4 4 5 4 4 4 4 6 6 6 6 7 8 8 7 9 11 11 11 12 12 11 10 10 12 11 9 10 9 7 7 6 6 5 5 5
6 6 6 6 6 5 4 4 4 4 3 4 4 4 4 4 5 6 7 7 7 7 8 9 11 11 12 12 11 11 11 12 11 10 11 10 8 8 7 6 5 5 5
6 5 5 6 5 5 4 4 4 4 4 4 4 4 4 4 4 5 6 6 7 7 7 7 9 10 12 12 13 12 12 12 12 12 11 11 8 9 7 7 7 6 6
6 5 5 5 5 5 5 4 4 4 4 4 4 4 3 3 4 5 5 5 6 6 6 7 7 8 10 10 11 11 11 11 11 12 12 11 10 10 8 8 7 6 5
6 5 5 5 5 5 5 5 5 4 4 4 4 4 4 5 5 5 3 4 5 6 6 6 7 7 8 9 10 10 10 9 9 10 10 10 11 11 10 8 8 6 5
6 6 5 5 5 5 5 5 4 4 4 4 4 4 5 5 5 4 3 2 4 5 5 5 6 7 7 8 10 10 10 9 9 8 9 9 10 11 10 8 8 7 6
7 7 6 5 5 5 6 5 4 4 3 4 4 4 4 5 4 4 2 2 2 3 4 4 5 6 7 8 10 10 9 9 9 8 8 8 9 10 11 11 10 10 8
7 6 5 5 6 5 5 5 5 4 4 4 5 5 5 5 5 4 2 2 2 2 3 3 4 5 6 9 10 11 9 8 8 8 8 7 7 9 8 9 9 8 9
5 6 5 5 5 5 5 5 4 4 5 5 6 6 5 5 4 4 2 2 2 2 2 3 4 4 6 7 8 9 9 8 7 7 8 9 8 8 9 8 6 5 5
5 5 5 5 5 6 5 4 4 4 5 5 6 6 6 5 4 4 4 3 2 2 2 3 3 4 5 7 7 6 6 6 7 6 7 8 8 11 12 9 7 5 3
4 4 5 4 5 6 4 4 4 4 5 6 6 6 5 5 5 4 4 3 2 3 2 3 3 4 5 7 7 6 5 5 5 5 6 9 10 11 13 10 9 7 5
5 4 4 4 5 5 3 3 4 5 6 6 6 6 6 5 4 4 4 4 2 2 2 2 2 3 4 5 7 6 5 5 5 5 5 6 10 12 12 10 8 8 7
6 5 4 5 5 3 2 3 5 6 5 5 5 6 6 5 4 3 4 4 2 1 1 1 2 3 4 5 6 6 5 5 4 4 4 5 8 10 11 8 8 11 9
6 5 4 6 5 3 2 4 6 5 4 5 5 6 6 5 4 3 3 3 1 0 1 1 2 2 2 3 5 6 6 5 3 3 4 6 8 8 7 9 11 10 6
6 5 4 5 6 5 4 5 5 4 3 4 5 5 5 4 4 3 2 2 1 1 1 2 2 2 2 3 3 3 4 4 3 3 4 5 6 6 7 8 7 5 5
6 5 5 5 6 5 5 5 4 3 3 4 4 4 4 3 4 3 2 2 2 2 2 3 3 3 3 3 3 3 3 3 4 4 3 3 4 4 4 4 4 4 5
6 5 5 6 6 5 6 5 4 2 2 3 4 3 3 3 3 3 3 3 1 3 4 3 3 2 3 4 3 3 3 4 6 4 4 4 4 4 4 4 4 4 4
Wind_Direction
270 275 274 272 265 254 245 237 233 226 207 202 209 220 218 209 208 211 207 202 200 199 201 202 194 192 194 195 186 186 178 184 165 146 145 288 232 221 221 214 213 220 222
293 292 282 271 270 257 250 251 241 226 212 209 212 227 214 208 212 211 210 209 205 202 206 202 199 199 195 193 191 181 178 181 174 162 149 183 285 254 223 213 215 221 215
275 282 281 266 274 272 257 255 247 226 216 210 213 228 208 198 211 214 216 216 211 206 206 205 201 199 196 197 196 189 183 187 188 182 163 168 209 230 239 218 217 214 212
276 275 271 268 272 270 265 261 248 228 220 208 207 210 216 223 227 221 222 223 216 211 209 208 205 202 199 198 198 196 191 183 186 193 200 178 156 164 211 253 228 218 218
278 273 263 260 264 271 270 266 255 238 230 218 210 212 220 226 223 217 218 227 223 214 209 211 209 204 201 200 197 195 193 191 187 184 175 170 161 154 172 222 231 237 227
283 279 270 272 278 288 273 259 256 254 247 230 217 218 220 218 217 222 220 225 226 220 211 209 210 204 202 200 199 198 195 195 189 186 181 172 168 177 178 207 212 225 234
284 286 290 286 284 290 284 272 254 255 256 248 234 224 223 219 216 220 221 225 228 227 215 209 211 207 202 201 197 198 199 197 192 193 195 192 190 170 167 177 200 222 241
303 297 286 283 275 281 285 280 267 261 257 253 250 234 230 226 223 223 225 224 227 223 214 209 211 210 201 199 197 201 201 199 198 198 194 194 193 184 181 176 180 205 247
304 303 306 307 294 281 276 273 268 274 269 256 253 253 242 234 231 229 227 229 229 225 212 209 211 210 201 198 195 202 202 198 198 198 196 196 196 189 192 189 185 189 221
312 312 314 315 302 284 275 273 264 265 270 278 268 274 256 239 235 232 234 232 226 222 217 212 212 207 200 198 198 201 199 196 196 194 194 202 200 193 193 192 196 199 203
307 306 308 304 302 304 289 283 286 286 289 281 277 273 274 267 248 239 239 231 220 216 219 215 209 207 203 198 198 203 193 196 195 191 196 204 196 196 194 188 193 201 197
302 305 305 308 311 305 300 295 292 292 293 289 284 283 277 279 266 257 253 229 219 215 213 214 213 210 205 198 199 199 192 194 196 194 197 202 196 196 191 190 195 202 201
314 316 313 314 313 309 310 307 299 292 299 299 293 290 288 287 284 272 252 227 214 212 211 210 214 214 205 198 200 192 190 192 195 194 197 198 192 198 195 194 198 201 197
310 312 312 314 315 313 315 315 314 309 312 315 308 306 305 294 290 286 258 231 212 208 212 216 216 213 204 199 194 188 186 191 193 196 198 198 196 197 196 197 198 192 185
307 306 303 303 311 320 321 316 313 317 319 320 320 315 313 310 307 307 275 248 225 217 216 220 218 205 201 196 188 185 185 188 191 195 199 200 196 193 193 192 190 186 187
300 300 302 309 315 316 316 316 316 319 317 319 317 317 323 322 315 311 295 279 246 228 223 215 216 208 204 190 189 188 186 187 189 195 199 198 192 189 189 187 185 185 187
289 294 298 298 299 302 303 304 307 317 323 323 324 326 328 323 318 314 308 297 261 234 228 223 217 216 197 184 184 186 188 189 192 194 193 195 192 185 185 185 185 190 191
287 292 294 297 297 299 303 307 315 325 325 327 327 327 330 324 319 315 301 296 277 226 227 236 232 214 191 177 178 184 190 191 192 195 193 192 189 185 178 176 180 190 196
276 281 283 287 299 305 306 312 319 325 327 325 322 322 325 322 318 313 303 290 289 265 238 240 224 208 189 175 173 173 183 187 189 192 191 188 188 183 173 172 175 173 167
288 290 294 300 303 303 306 313 314 322 319 316 314 316 318 313 308 307 303 302 286 262 247 234 219 206 191 177 170 166 177 182 186 186 191 191 189 182 174 175 175 180 175
288 289 290 292 290 296 302 302 307 303 301 308 314 316 318 313 307 313 314 311 292 273 235 220 224 197 188 177 173 172 176 179 182 187 192 195 185 181 178 179 183 180 162
288 284 284 287 289 290 290 293 293 294 306 315 316 316 318 316 320 328 328 323 300 252 205 212 228 183 180 181 177 178 179 174 178 188 190 188 180 177 175 175 165 154 146
280 281 277 288 296 288 271 275 285 298 311 317 315 315 319 319 323 327 326 326 303 204 226 211 218 195 180 178 178 175 175 172 171 180 184 180 174 164 164 159 155 152 148
278 279 278 285 293 294 286 276 284 297 303 307 312 319 324 326 329 326 317 309 295 270 249 233 220 201 185 171 163 161 159 153 144 142 146 142 143 141 141 146 147 149 152
278 273 265 268 277 287 289 285 286 294 303 307 313 319 324 326 328 327 312 298 275 264 252 239 227 202 200 201 185 169 169 165 161 148 143 137 135 133 134 136 137 137 137
273 271 269 270 277 285 288 289 288 282 289 304 308 309 318 318 320 324 336 324 301 316 309 286 260 250 225 208 200 186 172 160 157 148 156 156 153 155 158 156 149 145 143
Height
1413 1414 1414 1413 1413 1413 1413 1414 1416 1417 1418 1419 1421 1422 1424 1426 1428 1430 1433 1436 1439 1441 1444 1447 1450 1452 1455 1458 1461 1465 1469 1472 1476 1478 1480 1484 1487 1488 1489 1491 1493 1495 1496
1408 1408 1409 1408 1408 1408 1409 1409 1410 1411 1412 1414 1416 1417 1419 1420 1423 1425 1428 1431 1433 1436 1438 1441 1444 1447 1449 1452 1456 1459 1463 1466 1470 1472 1475 1479 1483 1483 1484 1486 1489 1491 1492
1406 1405 1404 1404 1404 1403 1404 1404 1405 1406 1408 1410 1411 1412 1414 1415 1417 1419 1421 1424 1427 1429 1432 1435 1438 1441 1444 1446 1450 1453 1457 1460 1464 1467 1470 1472 1474 1477 1479 1481 1484 1486 1488
1402 1401 1401 1400 1399 1399 1400 1401 1401 1401 1403 1404 1405 1406 1407 1408 1410 1413 1415 1418 1421 1423 1426 1428 1431 1434 1437 1440 1444 1447 1451 1455 1458 1461 1464 1466 1468 1471 1473 1476 1479 1482 1483
1399 1398 1398 1397 1397 1396 1397 1397 1397 1397 1399 1400 1400 1401 1402 1404 1406 1408 1410 1412 1414 1416 1419 1422 1425 1428 1431 1434 1438 1441 1445 1448 1451 1454 1457 1461 1463 1465 1467 1469 1473 1476 1478
1397 1396 1395 1395 1394 1394 1394 1394 1394 1393 1393 1394 1394 1395 1397 1398 1400 1402 1404 1405 1407 1409 1412 1416 1418 1421 1425 1428 1432 1436 1439 1442 1446 1449 1452 1454 1457 1460 1462 1465 1467 1470 1472
1395 1393 1392 1391 1390 1390 1390 1390 1390 1389 1389 1389 1389 1390 1391 1393 1394 1396 1398 1399 1400 1402 1405 1409 1412 1415 1418 1422 1426 1430 1433 1437 1440 1443 1446 1450 1453 1456 1459 1461 1463 1465 1467
1392 1391 1390 1389 1387 1387 1387 1387 1387 1386 1386 1385 1385 1386 1387 1388 1389 1391 1392 1393 1395 1396 1399 1403 1406 1409 1412 1416 1420 1423 1427 1431 1434 1437 1441 1444 1448 1452 1454 1457 1460 1461 1462
1391 1389 1388 1386 1385 1385 1384 1384 1383 1383 1382 1381 1381 1381 1381 1382 1383 1385 1386 1387 1389 1391 1393 1397 1400 1403 1406 1409 1413 1417 1420 1425 1428 1431 1435 1439 1443 1446 1449 1453 1455 1457 1457
1388 1387 1385 1384 1384 1383 1382 1382 1381 1380 1378 1377 1377 1377 1377 1377 1378 1379 1380 1381 1383 1385 1388 1391 1394 1397 1399 1403 1407 1410 1414 1418 1422 1426 1430 1433 1437 1441 1444 1447 1450 1452 1453
1389 1386 1384 1384 1382 1381 1380 1379 1377 1376 1375 1374 1374 1373 1372 1372 1373 1373 1374 1376 1377 1380 1382 1385 1388 1390 1393 1397 1401 1404 1408 1412 1416 1420 1424 1428 1432 1436 1438 1441 1444 1446 1448
1387 1385 1384 1382 1380 1379 1377 1376 1375 1373 1371 1370 1370 1369 1368 1368 1368 1368 1369 1370 1372 1374 1376 1379 1382 1384 1387 1391 1395 1398 1402 1406 1410 1414 1419 1423 1427 1430 1433 1436 1438 1441 1443
1385 1383 1381 1380 1378 1376 1374 1373 1371 1370 1368 1368 1366 1365 1364 1363 1363 1363 1363 1365 1367 1369 1371 1374 1376 1378 1381 1385 1389 1393 1396 1401 1404 1409 1413 1417 1421 1424 1427 1430 1432 1435 1437
1384 1381 1379 1377 1376 1374 1372 1370 1369 1367 1366 1364 1363 1361 1360 1359 1358 1358 1358 1360 1362 1364 1366 1368 1370 1374 1377 1380 1383 1387 1391 1395 1399 1404 1408 1411 1414 1417 1421 1424 1427 1430 1432
1382 1380 1378 1377 1375 1372 1370 1368 1366 1364 1363 1362 1360 1358 1357 1356 1355 1354 1354 1356 1357 1359 1361 1363 1366 1368 1372 1375 1378 1382 1386 1390 1394 1399 1402 1406 1409 1412 1416 1418 1421 1424 1426
1380 1378 1376 1373 1371 1370 1368 1366 1364 1362 1362 1359 1357 1356 1354 1353 1352 1351 1352 1352 1353 1354 1356 1359 1361 1364 1367 1370 1374 1377 1381 1385 1389 1393 1397 1401 1404 1408 1411 1413 1416 1419 1421
1378 1376 1374 1372 1371 1369 1367 1364 1362 1361 1359 1357 1355 1353 1352 1350 1349 1349 1349 1350 1350 1351 1353 1355 1357 1360 1363 1366 1369 1373 1377 1380 1384 1387 1391 1395 1398 1402 1405 1408 1411 1414 1416
1376 1375 1373 1371 1369 1367 1365 1362 1360 1358 1356 1354 1352 1351 1349 1348 1347 1347 1346 1346 1347 1348 1349 1351 1353 1356 1359 1362 1365 1369 1373 1376 1379 1383 1387 1390 1393 1396 1400 1403 1405 1407 1410
1374 1372 1371 1369 1366 1364 1362 1360 1358 1356 1354 1352 1350 1348 1347 1346 1345 1344 1343 1344 1344 1345 1346 1348 1350 1352 1355 1359 1362 1365 1368 1371 1375 1379 1382 1385 1388 1391 1395 1397 1400 1402 1404
1372 1370 1368 1366 1364 1362 1360 1357 1355 1354 1351 1350 1348 1346 1345 1343 1342 1341 1340 1340 1341 1341 1343 1345 1347 1349 1351 1355 1358 1362 1364 1367 1370 1374 1378 1381 1383 1386 1389 1392 1394 1396 1399
1369 1367 1365 1363 1362 1360 1358 1355 1353 1352 1350 1349 1347 1344 1343 1341 1340 1339 1338 1337 1337 1339 1340 1342 1344 1346 1348 1351 1355 1358 1361 1363 1366 1369 1372 1375 1378 1381 1385 1387 1390 1392 1395
1366 1364 1362 1360 1359 1357 1355 1353 1351 1350 1348 1346 1344 1342 1340 1338 1337 1336 1335 1335 1335 1336 1337 1339 1341 1343 1346 1349 1352 1355 1358 1361 1363 1365 1368 1371 1374 1377 1380 1383 1386 1389 1391
1363 1361 1359 1357 1355 1355 1353 1350 1349 1347 1345 1344 1341 1339 1337 1336 1335 1333 1332 1332 1333 1334 1335 1336 1338 1340 1343 1346 1349 1352 1355 1357 1360 1362 1365 1367 1370 1373 1376 1379 1381 1384 1386
1359 1357 1355 1353 1352 1351 1350 1348 1346 1345 1343 1341 1339 1337 1334 1333 1332 1332 1331 1331 1331 1332 1332 1334 1336 1338 1340 1343 1346 1349 1352 1354 1356 1359 1361 1364 1366 1369 1371 1374 1377 1380 1382
1354 1353 1351 1350 1348 1347 1346 1345 1343 1341 1340 1338 1336 1335 1333 1331 1330 1330 1330 1330 1330 1331 1331 1332 1334 1336 1337 1340 1343 1345 1348 1351 1353 1356 1358 1360 1362 1364 1367 1370 1373 1376 1378
1350 1348 1347 1346 1344 1343 1342 1341 1340 1338 1337 1335 1334 1332 1331 1330 1329 1328 1327 1328 1329 1330 1331 1331 1332 1334 1336 1338 1340 1343 1346 1348 1351 1353 1354 1356 1358 1361 1364 1366 1369 1372 1374